User: anonymous   Login
Location: Unspecified
(0.0000°N, 0.0000°E)
Time: 09:31:09
(UTC+00:00)
Language:

ATS 3 - Orbit

View from above orbital plane
View from above orbital plane
View from above satellite
View from above satellite

Ground track
Ground track

The orbit data is extracted from the following two-line orbital elements,

1 03029U 67111A   17327.93032069 -.00000086  00000-0  00000+0 0  9996
2 03029   4.4273 296.9225 0012616 121.3251 234.5698  1.00271730183260
Epoch (UTC): 23 November 2017 22:19:39
Eccentricity: 0.0012616
inclination: 4.4273°
perigee height: 35733 km
apogee height: 35839 km
right ascension of ascending node: 296.9225°
argument of perigee: 121.3251°
revolutions per day: 1.00271730
mean anomaly at epoch: 234.5698°
orbit number at epoch: 18326

The dashed part of the orbit path shows where the satellite is in the earth's shadow,  

DLR